{"data":{"norad_id":67204,"intl_designator":"2025-304N","name":"STARLINK-36185","alt_names":[],"object_type":"PAYLOAD","status":"ACTIVE","operator":null,"country":"US","launch_date":"2025-12-17","launch_site_code":"AFWTR","launch_vehicle":null,"mission":null,"orbit_class":"UNKNOWN","rcs_meters":null,"size_class":null,"mass_kg":null,"dimensions":null,"purposes":["comms"],"wikipedia_slug":null,"has_3d_model":false,"image_url":null,"decayed_at":null,"tle_current":{"epoch":"2026-05-24T23:27:35.739072Z","epoch_age_seconds":76712,"freshness":"FRESH","line1":"1 67204U 25304N   26144.97749698  .00003912  00000+0  33551-3 0  9993","line2":"2 67204  70.0018 342.0343 0002772 265.8449  94.2394 14.98327305 25316","mean_motion":14.98327305,"eccentricity":0.0002772,"inclination_deg":70.0018,"raan_deg":342.0343,"arg_perigee_deg":265.8449,"mean_anomaly_deg":94.2394,"bstar":0.00033551,"rev_number":2531,"period_min":96.107171990702,"perigee_km":570.13762924252,"apogee_km":573.99082080167,"semimajor_km":6950.2012250221,"source":"CELESTRAK","updated_at":"2026-05-25T13:38:21.510232Z"}}}